Location: Bergnerzell
(49.1816°N, 10.2565°E)
Time: 08:01:29
(UTC+00:00)

Cosmos 2219 Rocket - Pass Details

Date: 23 May 2024
Orbit: 826 x 846 km, 71.0° (Epoch: 15 June)

Event Time Altitude Azimuth Distance (km) Brightness Sun altitude
Rises 01:48:36 0° 332° (NNW) 3,399 5.7 -12.3°
Reaches altitude 10° 01:51:05 10° 336° (NNW) 2,464 5.0 -12.1°
Maximum altitude 01:56:43 66° 58° (ENE) 916 2.6 -11.5°
Drops below altitude 10° 02:02:20 10° 141° (SE) 2,460 4.5 -11.0°
Sets 02:04:48 0° 144° (SE) 3,394 5.2 -10.7°
